The Dalles, WA

10:12 AM PST on November 20, 2017 (GMT -0800)
Columbia Gorge Regional-The Dalles

Weather History for KDLS - June, 2014

Change the Weather History Date:

Wednesday, June 4, 2014

  Actual Average Record
Temperature  
Mean Temperature 68 °F -  
Max Temperature 84 °F 79 °F 100 °F (1978)
Min Temperature 54 °F 53 °F 42 °F (1962)
Cooling Degree Days 3    
Growing Degree Days 18 (Base 50)    
Moisture  
Dew Point 45 °F    
Average Humidity 47    
Maximum Humidity 72    
Minimum Humidity 21    
Precipitation  
Precipitation 0.00 in - - ()
Sea Level Pressure  
Sea Level Pressure 29.99 in    
Wind  
Wind Speed 12 mph (NW)    
Max Wind Speed 21 mph    
Max Gust Speed 29 mph    
Visibility 10 miles    
Events      
Averages and records for this station are not official NWS values.
T = Trace of Precipitation, MM = Missing Value Source: NWS Daily Summary

Daily Weather History Graph

Daily Weather History Graph

Search for Another Location

Airport or City:

Trip Planner

Search our weather history database for the weather conditions in past years. The results will help you decide how hot, cold, wet, or windy it might be!

Date:

Astronomy

Jun. 04, 2014 Rise Set
Actual Time 5:17 AM PDT 8:49 PM PDT
Civil Twilight 4:40 AM PDT 9:26 PM PDT
Nautical Twilight 3:50 AM PDT 10:16 PM PDT
Astronomical Twilight 2:46 AM PDT 11:21 PM PDT
Moon 11:55 AM PDT (6/4) 12:37 AM PDT (6/4)
Length of Visible Light 16h 46m
Length of Day
15h 31m
Waxing Crescent, 40% of the Moon is Illuminated
Jun 4
Waxing Crescent
Jun 5
First Quarter
Jun 12
Full
Jun 19
Last Quarter
Jun 27
New

Hourly Weather History & Observations

Time (PDT) Temp. Dew Point Humidity Pressure Visibility Wind Dir Wind Speed Gust Speed Precip Events Conditions
12:53 AM 61.0 °F 45.0 °F 56% 30.00 in 10.0 mi WNW 8.1 mph - N/A   Clear
1:53 AM 60.1 °F 45.0 °F 57% 30.01 in 10.0 mi NW 10.4 mph - N/A   Clear
2:53 AM 59.0 °F 46.9 °F 64% 30.01 in 10.0 mi NNW 9.2 mph - N/A   Clear
3:53 AM 57.9 °F 46.9 °F 67% 30.02 in 10.0 mi NW 10.4 mph - N/A   Clear
4:53 AM 55.9 °F 46.9 °F 72% 30.03 in 10.0 mi NW 11.5 mph - N/A   Clear
5:53 AM 54.0 °F 44.1 °F 69% 30.03 in 10.0 mi SW 4.6 mph - N/A   Clear
6:53 AM 57.9 °F 46.0 °F 65% 30.05 in 10.0 mi North - - N/A   Clear
7:53 AM 61.0 °F 46.9 °F 60% 30.05 in 10.0 mi WNW 4.6 mph - N/A   Clear
8:53 AM 63.0 °F 48.0 °F 58% 30.06 in 10.0 mi NNW 16.1 mph 23.0 mph N/A   Clear
9:53 AM 66.9 °F 48.0 °F 51% 30.04 in 10.0 mi NW 19.6 mph 25.3 mph N/A   Clear
10:53 AM 70.0 °F 46.9 °F 44% 30.02 in 10.0 mi NNW 18.4 mph - N/A   Clear
11:53 AM 73.0 °F 46.9 °F 39% 30.00 in 10.0 mi NNW 18.4 mph - N/A   Clear
12:53 PM 75.0 °F 48.0 °F 38% 29.98 in 10.0 mi NNW 18.4 mph 26.5 mph N/A   Clear
1:53 PM 77.0 °F 46.9 °F 34% 29.96 in 10.0 mi NNW 19.6 mph 28.8 mph N/A   Clear
2:53 PM 79.0 °F 48.9 °F 35% 29.94 in 10.0 mi NNW 20.7 mph 25.3 mph N/A   Clear
3:53 PM 80.1 °F 46.9 °F 31% 29.93 in 10.0 mi NW 16.1 mph 26.5 mph N/A   Clear
4:53 PM 82.0 °F 37.9 °F 21% 29.93 in 10.0 mi WNW 20.7 mph 28.8 mph N/A   Clear
5:53 PM 81.0 °F 41.0 °F 24% 29.94 in 10.0 mi NW 15.0 mph 24.2 mph N/A   Clear
6:53 PM 75.0 °F 46.0 °F 36% 29.94 in 10.0 mi NW 15.0 mph 24.2 mph N/A   Clear
8:53 PM 70.0 °F 37.9 °F 31% 29.96 in 10.0 mi WNW 15.0 mph - N/A   Clear
9:53 PM 68.0 °F 37.0 °F 32% 29.99 in 10.0 mi WNW 10.4 mph - N/A   Clear
10:53 PM 66.0 °F 39.9 °F 38% 29.99 in 10.0 mi WNW 17.3 mph - N/A   Clear
11:53 PM 63.0 °F 45.0 °F 52% 29.99 in 10.0 mi NW 13.8 mph - N/A   Clear